Location: *
(51.5000°N, 0.1100°W)
Time: 17:44:37
(UTC+00:00)

CZ-2C R/B - Pass Details

Date: 25 May 2024
Orbit: 703 x 904 km, 98.2° (Epoch: 16 June)

Event Time Altitude Azimuth Distance (km) Brightness Sun altitude
Rises 02:23:43 0° 14° (NNE) 3,541 7.9 -10.7°
Reaches altitude 10° 02:26:09 10° 15° (NNE) 2,598 7.0 -10.5°
Maximum altitude 02:32:01 84° 105° (ESE) 910 3.4 -10.0°
Drops below altitude 10° 02:37:43 10° 194° (SSW) 2,531 5.1 -9.4°
Enters shadow 02:37:56 - 194° (SSW) 2,614 5.2 -9.4°
